[[{"header":{"parameterUnit":"m.s-1","parameterCategory":1,"la1":30.2991,"la2":30.254,"lo1":-89.0895,"lo2":-89.0444,"dy":0.0017,"dx":0.0017,"nx":28,"ny":28,"refTime":"2023-04-01T21:00:00:Z","depth":0,"parameterNumber":2,"parameterNumberName":"U-component_of_WINDS"},"data":[0,0,0,0,0,0,0,0,0,0,0,0,0,0,0,0,0,0,0,0,0,0,0,0,0,0,0,0,0,0,0,0,0,0,0,0,0,0,0,0,0,0,0,0,0,0,0,0,0,0,0,0,0,0,0,0,0,0,-4.4184,-4.4185,0,-4.4273,-4.4274,-4.4275,-4.4245,-4.4243,-4.4241,-4.4239,-4.4328,-4.4332,-4.4336,0,0,0,0,0,0,0,0,0,0,0,0,0,-4.3986,-4.399,-4.4184,-4.4185,-4.4186,-4.4273,-4.4274,-4.4276,-4.4245,-4.4243,-4.424,-4.4238,-4.4327,-4.4332,-4.4337,0,0,0,0,0,0,0,0,0,0,0,0,0,-4.4073,-4.3991,-4.4184,-4.4181,-4.4182,-4.4273,-4.4274,-4.4276,-4.4246,-4.4243,-4.424,-4.4237,-4.4325,-4.4331,-4.4337,-4.4435,0,0,-4.4356,-4.4359,0,0,0,0,0,0,0,0,-4.4068,-4.408,-4.4181,-4.4182,-4.4183,-4.4245,-4.4237,-4.4329,-4.4246,-4.4221,-4.4239,-4.4236,-4.4303,-4.431,-4.4334,-4.4439,-4.4443,-4.4357,-4.4361,-4.4364,-4.4365,0,0,0,0,0,0,0,-4.4062,-4.4076,-4.4219,-4.4182,-4.4183,-4.4176,-4.4185,-4.4254,-4.4277,-4.4223,-4.4221,-4.4233,-4.4303,-4.4328,-4.4335,-4.4444,-4.4357,-4.4362,-4.4366,-4.4369,-4.4635,-4.4638,0,0,0,0,0,0,-4.4056,-4.4072,-4.4216,-4.4222,-4.4117,-4.4182,-4.4192,-4.4228,-4.4276,-4.4281,-4.4235,-4.4231,-4.4318,-4.4328,-4.4338,-4.4455,-4.4363,-4.4369,-4.4373,-4.4631,-4.4635,-4.4639,0,0,0,0,0,0,-4.4052,-4.4069,-4.4213,-4.4146,-4.4164,-4.4188,-4.4229,-4.4231,-4.4256,-4.4285,-4.4289,-4.4256,-4.4316,-4.433,-4.4411,-4.4458,-4.4372,-4.4378,-4.4628,-4.4633,-4.4637,-4.469,0,0,0,0,0,0,-4.4046,-4.4068,-4.4105,-4.4147,-4.4168,-4.4284,-4.4232,-4.4235,-4.4267,-4.4263,-4.4306,-4.4311,-4.4315,-4.4402,-4.4418,-4.4465,-4.4383,-4.4623,-4.463,-4.4636,-4.4684,-4.4696,-4.4706,0,0,0,0,0,-4.4039,-4.4115,-4.4107,-4.4124,-4.4215,-4.4287,-4.4298,-4.4303,-4.4271,-4.4309,-4.4328,-4.4309,-4.4451,-4.4411,-4.4428,-4.4478,-4.462,-4.4628,-4.4635,-4.4679,-4.4694,-4.4706,0,0,0,0,0,0,-4.4076,-4.4121,-4.4112,-4.4204,-4.4242,-4.4282,-4.4328,-4.4318,-4.4365,-4.4358,-4.4361,-4.4372,-4.4456,-4.4476,-4.4429,-4.4576,-4.4531,-4.4542,-4.4559,-4.4573,-4.4584,-4.4576,-4.4388,0,0,0,0,0,-4.4095,-4.415,-4.4187,-4.4264,-4.4284,-4.4304,-4.4335,-4.4336,-4.4375,-4.439,-4.4415,-4.4453,-4.4507,-4.4541,-4.4592,-4.4689,-4.4697,-4.4732,-4.4743,-4.4752,-4.476,-4.4813,-4.4828,-4.4663,-4.4663,-4.4663,0,0,-4.4134,-4.4166,-4.42,-4.4273,-4.4302,-4.4359,-4.4317,-4.4379,-4.4421,-4.4399,-4.4478,-4.4498,-4.4541,-4.4631,-4.4671,-4.465,-4.4809,-4.4761,-4.4768,-4.4772,-4.4822,-4.4838,-4.4852,-4.4668,-4.4668,-4.4667,0,0,-4.4234,-4.4264,-4.4332,-4.4364,-4.441,-4.4423,-4.4439,-4.4482,-4.4494,-4.4574,-4.456,-4.461,-4.4702,-4.4733,-4.4761,-4.4878,-4.4862,-4.4894,-4.4951,-4.5002,-4.5015,-4.5027,-4.5067,-4.5082,-4.4904,-4.4904,-4.4904,0,-4.4276,-4.4362,-4.4368,-4.4432,-4.4464,-4.445,-4.4519,-4.4549,-4.4609,-4.4632,-4.4608,-4.4724,-4.4752,-4.4849,-4.4877,-4.4901,-4.492,-4.4887,-4.5013,-4.5025,-4.5036,-4.5074,-4.5089,-4.4907,-4.4907,-4.4906,-4.4906,0,-4.4411,-4.4471,-4.4521,-4.458,-4.4619,-4.4685,-4.4702,-4.474,-4.4739,-4.4754,-4.4836,-4.487,-4.4928,-4.4952,-4.495,-4.5049,-4.5034,-4.5012,-4.4967,-4.5055,-4.5091,-4.5105,-4.4912,-4.4911,-4.491,-4.4909,0,0,-4.4532,-4.4597,-4.4615,-4.4643,-4.4694,-4.4741,-4.4807,-4.4865,-4.4897,-4.4941,-4.4995,-4.5076,-4.5056,-4.5088,-4.5091,-4.5136,-4.5226,-4.5109,-4.511,-4.5127,-4.5336,-4.535,-4.5367,-4.5217,-4.522,-4.5223,-4.5331,0,-4.4635,-4.4751,-4.476,-4.4865,-4.492,-4.491,-4.4968,-4.5006,-4.5024,-4.5073,-4.5093,-4.5149,-4.512,-4.5139,-4.5184,-4.5205,-4.5267,-4.5198,-4.5267,-4.5269,-4.5253,-4.5386,-4.5401,-4.5501,-4.5346,-4.5348,-4.535,0,-4.4768,-4.4817,-4.4928,-4.4973,-4.4997,-4.5049,-4.5103,-4.5151,-4.5195,-4.5205,-4.5243,-4.524,-4.5308,-4.5264,-4.5358,-4.5311,-4.5341,-4.5356,-4.536,-4.5364,-4.5312,-4.5391,-4.5534,-4.5548,-4.5373,-4.5371,-4.5369,0,-4.4843,-4.4937,-4.5015,-4.5039,-4.5095,-4.5132,-4.5156,-4.5197,-4.5232,-4.5281,-4.5303,-4.5359,-4.5388,-4.5431,-4.5444,-4.5411,-4.5538,-4.5494,-4.5546,-4.5546,-4.557,-4.5568,-4.5717,-4.5595,-4.5594,-4.5594,-4.5594,0,-4.4955,-4.5022,-4.505,-4.5097,-4.5173,-4.5185,-4.526,-4.5282,-4.532,-4.5372,-4.5367,-4.5416,-4.5431,-4.5483,-4.5494,-4.557,-4.5584,-4.5593,-4.5594,-4.5592,-4.559,-4.5608,-4.5601,-4.5598,-4.5597,-4.5596,-4.5596,0,-4.5049,-4.5071,-4.5155,-4.5202,-4.5216,-4.5269,-4.5309,-4.5356,-4.5374,-4.544,-4.5457,-4.5485,-4.5546,-4.5565,-4.5638,-4.5645,-4.5733,-4.573,-4.5718,-4.5718,-4.5768,-4.5762,-4.5932,-4.5954,-4.5819,-4.5821,-4.5822,0,-4.5117,-4.5169,-4.5223,-4.5258,-4.5285,-4.5341,-4.5378,-4.5392,-4.543,-4.5486,-4.5525,-4.5586,-4.5635,-4.5733,-4.576,-4.5817,-4.5813,-4.5869,-4.5821,-4.5817,-4.5811,-4.5807,-4.5812,-4.5876,-4.5878,-4.5879,-4.588,0,-4.5236,-4.5244,-4.5297,-4.5354,-4.5398,-4.5443,-4.5487,-4.5516,-4.5537,-4.558,-4.5643,-4.5682,-4.5758,-4.5818,-4.5876,-4.5901,-4.5894,-4.5896,-4.591,-4.5906,-4.5896,-4.5901,-4.574,-4.589,-4.5889,-4.5889,-4.5888,-4.5888,-4.5318,-4.5363,-4.5409,-4.5468,-4.5503,-4.5545,-4.5591,-4.5616,-4.567,-4.5733,-4.5739,-4.5807,-4.5852,-4.5929,-4.5958,-4.6012,-4.5995,-4.6017,-4.6022,-4.6026,-4.6029,-4.5891,-4.6023,-4.6022,-4.6022,-4.6022,-4.6022,0,-4.5434,-4.5463,-4.5518,-4.558,-4.5627,-4.5619,-4.5668,-4.5707,-4.5768,-4.5811,-4.586,-4.5933,-4.5992,-4.6026,-4.6085,-4.6122,-4.612,-4.6137,-4.6132,-4.6138,-4.6041,-4.6022,-4.6137,-4.6137,-4.6137,-4.6137,-4.6137,-4.6137,-4.5499,-4.5577,-4.5591,-4.5687,-4.5716,-4.5783,-4.5812,-4.585,-4.5885,-4.5967,-4.6016,-4.6039,-4.6078,-4.6141,-4.6195,-4.6204,-4.6224,-4.6243,-4.6249,-4.6157,-4.6145,-4.6133,-4.6115,-4.6248,-4.6248,-4.6341,-4.6342,-4.6342]},{"header":{"parameterUnit":"m.s-1","parameterCategory":1,"la1":30.2991,"la2":30.254,"lo1":-89.0895,"lo2":-89.0444,"dy":0.0017,"dx":0.0017,"nx":28,"ny":28,"refTime":"2023-04-01T21:00:00:Z","depth":0,"parameterNumber":3,"parameterNumberName":"V-component_of_WINDS"},"data":[0,0,0,0,0,0,0,0,0,0,0,0,0,0,0,0,0,0,0,0,0,0,0,0,0,0,0,0,0,0,0,0,0,0,0,0,0,0,0,0,0,0,0,0,0,0,0,0,0,0,0,0,0,0,0,0,0,0,2.4798,2.4799,0,2.4819,2.4819,2.4819,2.4808,2.4807,2.4807,2.4806,2.4824,2.4825,2.4826,0,0,0,0,0,0,0,0,0,0,0,0,0,2.4749,2.475,2.4798,2.4799,2.4799,2.4819,2.4819,2.4819,2.4808,2.4807,2.4807,2.4806,2.4824,2.4825,2.4826,0,0,0,0,0,0,0,0,0,0,0,0,0,2.477,2.475,2.4798,2.4796,2.4796,2.4819,2.4819,2.4819,2.4808,2.4807,2.4806,2.4806,2.4823,2.4825,2.4826,2.4852,0,0,2.4831,2.4831,0,0,0,0,0,0,0,0,2.4769,2.4772,2.4796,2.4796,2.4796,2.481,2.4808,2.483,2.4808,2.4803,2.4806,2.4805,2.482,2.4822,2.4827,2.4853,2.4854,2.4831,2.4832,2.4833,2.4833,0,0,0,0,0,0,0,2.4767,2.4771,2.4806,2.4796,2.4796,2.4793,2.4795,2.4812,2.4816,2.4804,2.4803,2.4806,2.482,2.4826,2.4827,2.4854,2.4831,2.4832,2.4833,2.4834,2.4905,2.4906,0,0,0,0,0,0,2.4766,2.477,2.4806,2.4807,2.478,2.4795,2.4797,2.4806,2.4816,2.4816,2.4806,2.4805,2.4824,2.4826,2.4828,2.4861,2.4832,2.4834,2.4835,2.4904,2.4905,2.4907,0,0,0,0,0,0,2.4765,2.477,2.4805,2.4788,2.4793,2.4797,2.4807,2.4807,2.4813,2.4818,2.4818,2.4812,2.4823,2.4826,2.4847,2.4861,2.4835,2.4836,2.4903,2.4905,2.4906,2.4926,0,0,0,0,0,0,2.4764,2.4769,2.4779,2.4789,2.4794,2.4824,2.4808,2.4808,2.4816,2.4815,2.4823,2.4824,2.4823,2.4845,2.4849,2.4863,2.4837,2.4902,2.4904,2.4905,2.4924,2.4928,2.4931,0,0,0,0,0,2.4762,2.4783,2.478,2.4784,2.4806,2.4825,2.4827,2.4827,2.4817,2.4827,2.4831,2.4823,2.4859,2.4847,2.4851,2.4866,2.4901,2.4903,2.4905,2.4922,2.4927,2.4931,0,0,0,0,0,0,2.4773,2.4784,2.4781,2.4805,2.4814,2.4823,2.4835,2.4831,2.4843,2.4841,2.4838,2.484,2.4863,2.4867,2.4853,2.4893,2.4879,2.4882,2.489,2.4895,2.4898,2.4897,2.4838,0,0,0,0,0,2.4778,2.4793,2.4802,2.4822,2.4827,2.4831,2.4839,2.4838,2.4847,2.485,2.4855,2.4864,2.4878,2.4886,2.4898,2.4925,2.4927,2.4937,2.4941,2.4943,2.4946,2.4962,2.4967,2.4914,2.4914,2.4914,0,0,2.4789,2.4797,2.4806,2.4824,2.4832,2.4847,2.4834,2.485,2.4862,2.4852,2.4874,2.4878,2.4887,2.4912,2.4923,2.4915,2.4962,2.4946,2.4949,2.495,2.4965,2.497,2.4975,2.4915,2.4915,2.4915,0,0,2.4817,2.4824,2.4843,2.4851,2.4863,2.4866,2.4871,2.4881,2.4884,2.4905,2.4899,2.4913,2.4936,2.4944,2.4951,2.4985,2.4979,2.4989,2.5008,2.5024,2.5028,2.5032,2.5046,2.5051,2.4992,2.4992,2.4992,0,2.4828,2.4852,2.4853,2.4871,2.488,2.4874,2.4894,2.4902,2.4917,2.4923,2.4915,2.4946,2.4951,2.4979,2.4988,2.4993,2.4999,2.4988,2.5028,2.5031,2.5035,2.5048,2.5053,2.4993,2.4993,2.4993,2.4993,0,2.4866,2.4883,2.4897,2.4914,2.4925,2.4943,2.4947,2.4958,2.4957,2.4961,2.4984,2.4991,2.5006,2.5013,2.5011,2.5041,2.5036,2.5028,2.5013,2.5041,2.5054,2.5059,2.4995,2.4995,2.4994,2.4994,0,0,2.4899,2.4919,2.4924,2.4933,2.4947,2.496,2.498,2.4996,2.5006,2.5017,2.5034,2.5055,2.5049,2.5056,2.5056,2.507,2.5099,2.506,2.506,2.5068,2.5134,2.5141,2.5147,2.5095,2.5096,2.5097,2.5134,0,2.4929,2.4964,2.4967,2.4998,2.5015,2.5011,2.5028,2.5039,2.5044,2.5058,2.5063,2.5079,2.5068,2.5074,2.5087,2.5092,2.5112,2.509,2.5111,2.5112,2.5109,2.5153,2.5159,2.5194,2.5139,2.5139,2.514,0,2.4968,2.4983,2.5017,2.5032,2.5039,2.5054,2.5071,2.5085,2.5097,2.51,2.5111,2.5109,2.5129,2.5115,2.5143,2.5128,2.5137,2.5141,2.5143,2.5145,2.5128,2.5157,2.5204,2.521,2.5147,2.5147,2.5146,0,2.499,2.5019,2.5043,2.5051,2.5068,2.508,2.5087,2.5099,2.511,2.5125,2.5132,2.5148,2.5157,2.5169,2.5172,2.5161,2.5202,2.5186,2.5205,2.5205,2.5213,2.5213,2.5263,2.5218,2.5218,2.5218,2.5218,0,2.5024,2.5045,2.5054,2.5069,2.5093,2.5097,2.512,2.5127,2.5139,2.5155,2.5153,2.5168,2.5171,2.5187,2.5189,2.5214,2.5217,2.522,2.5221,2.5221,2.5221,2.5227,2.5225,2.5219,2.5219,2.5219,2.5218,0,2.5052,2.506,2.5087,2.5102,2.5107,2.5124,2.5137,2.5152,2.5157,2.5179,2.5184,2.5192,2.5212,2.5216,2.5238,2.524,2.5269,2.5267,2.5265,2.5265,2.5284,2.5283,2.5341,2.5349,2.5298,2.5298,2.5299,0,2.5073,2.509,2.5109,2.512,2.5129,2.5148,2.516,2.5164,2.5177,2.5194,2.5207,2.5227,2.5243,2.5274,2.5282,2.5299,2.5298,2.5317,2.53,2.5301,2.53,2.5299,2.5302,2.532,2.5321,2.5321,2.5322,0,2.5111,2.5114,2.5132,2.5152,2.5167,2.5182,2.5197,2.5206,2.5213,2.5227,2.5248,2.5261,2.5285,2.5305,2.5323,2.5331,2.5328,2.5327,2.5333,2.5333,2.5332,2.5335,2.5275,2.5326,2.5325,2.5325,2.5325,2.5325,2.5137,2.5153,2.5169,2.519,2.5202,2.5216,2.5232,2.5241,2.5259,2.528,2.5282,2.5305,2.5319,2.5344,2.5353,2.5371,2.5365,2.5373,2.5375,2.5377,2.5379,2.533,2.5374,2.5374,2.5374,2.5374,2.5374,0,2.5175,2.5186,2.5205,2.5228,2.5244,2.5242,2.5259,2.5273,2.5293,2.5308,2.5325,2.535,2.537,2.538,2.54,2.5413,2.5412,2.5418,2.5417,2.542,2.5383,2.5377,2.5419,2.5419,2.5419,2.5419,2.5419,2.5419,2.5197,2.5224,2.523,2.5264,2.5275,2.5299,2.5309,2.5323,2.5335,2.5364,2.5381,2.5389,2.5402,2.5423,2.5442,2.5445,2.5452,2.5459,2.5461,2.5426,2.5422,2.5418,2.5412,2.5461,2.5461,2.5497,2.5497,2.5498]}]]